This demonstration page uses our WeatherBlox Daily Observations layout. Learn more.

Left ArrowRight Arrow

39.51506, -84.39828

Hourly Observations for May 3, 2020

Temp ( °F °C ) Dew Point ( °F °C ) Humidity (%) Winds ( mph kmh ) Pressure ( in mb ) Visibility ( mi km ) Precip ( " mm )
12:15 am 00:15 Clear 66 19.1 59 14.8 76 76 SW 6 9 29.9 1012 N/A 0 0
12:35 am 00:35 Clear 68 19.9 59 15.1 74 74 SSW 6 9 29.88 1012 N/A 0 0
12:55 am 00:55 Clear 65 18.6 59 15.2 81 81 SSW 6 9 29.9 1012 N/A 0 0
1:15 am 01:15 Clear 68 19.8 60 15.3 75 75 SW 3 6 29.88 1012 N/A 0 0
1:35 am 01:35 Clear 67 19.2 60 15.3 78 78 WSW 3 6 29.9 1012 N/A 0 0
1:55 am 01:55 Clear 68 20 60 15.5 75 75 SW 6 9 29.9 1013 N/A 0 0
2:15 am 02:15 Clear 67 19.7 60 15.7 78 78 SW 7 11 29.91 1013 N/A 0 0
2:35 am 02:35 Clear 68 20 60 15.7 76 76 SW 7 11 29.89 1012 N/A 0 0
2:55 am 02:55 Mostly Cloudy 68 20 60 15.7 76 76 SW 7 11 29.89 1012 N/A 0 0
3:15 am 03:15 Mostly Cloudy 68 20.1 61 15.9 77 77 WSW 3 6 29.88 1012 N/A 0 0
3:35 am 03:35 Cloudy 69 20.4 61 16.2 77 77 W 6 9 29.89 1012 N/A 0 0
3:55 am 03:55 Cloudy with Nearby Thunderstorms 68 20 62 16.4 80 80 WNW 5 7 29.91 1013 N/A 0 0
4:15 am 04:15 undefined 66 19 63 17.2 89 89 SSW 6 9 29.92 1013 N/A 0 0
4:35 am 04:35 Mostly Clear with Nearby Thunderstorms 65 18.1 63 17.3 95 95 NW 5 7 29.93 1014 N/A 0 0
4:55 am 04:55 Cloudy 63 17.3 60 15.3 88 88 NNW 8 13 29.94 1014 N/A 0 0
5:15 am 05:15 undefined 62 16.5 59 15.2 92 92 NE 3 6 29.92 1013 N/A 0 0
5:35 am 05:35 Mostly Clear with Nearby Thunderstorms 61 16 59 15 94 94 Calm 29.93 1014 N/A 0 0
5:55 am 05:55 undefined 60 15.7 59 15 96 96 NW 12 19 29.96 1015 N/A 0 0
6:15 am 06:15 undefined 60 15.5 58 14.3 93 93 NNW 9 15 29.98 1015 N/A 0 0
6:35 am 06:35 Mostly Clear with Nearby Thunderstorms 59 15.1 58 14.2 94 94 SE 6 9 29.95 1014 N/A 0 0
6:55 am 06:55 Partly Cloudy with Thunderstorms 59 14.9 58 14.4 97 97 Calm 29.94 1014 N/A 0 0
7:15 am 07:15 Partly Cloudy with Thunderstorms 59 15.1 58 14.5 96 96 W 6 9 29.94 1014 N/A 0 0
7:35 am 07:35 Partly Cloudy with Thunderstorms 59 15.1 58 14.7 97 97 Calm 29.95 1014 N/A 0 0
7:55 am 07:55 undefined 59 15.2 59 14.9 98 98 Calm 29.95 1014 N/A 0 0
8:15 am 08:15 Partly Cloudy with Thunderstorms 59 15.2 59 15 99 99 Calm 29.96 1014 N/A 0 0
8:35 am 08:35 undefined 60 15.4 59 15.1 98 98 Calm 29.94 1014 N/A 0 0
8:55 am 08:55 Cloudy 60 15.8 59 15.1 96 96 Calm 29.94 1014 N/A 0 0
9:15 am 09:15 Cloudy 60 15.8 60 15.3 97 97 Calm 29.94 1014 N/A 0 0
9:35 am 09:35 Cloudy with Thunderstorms 61 16 59 15.2 95 95 Calm 29.93 1014 N/A 0 0
9:55 am 09:55 Cloudy with Thunderstorms 61 16.1 60 15.3 95 95 Calm 29.93 1014 N/A 0 0
10:15 am 10:15 Cloudy with Nearby Thunderstorms 61 16.2 60 15.5 96 96 SW 3 6 29.94 1014 N/A 0 0
10:35 am 10:35 undefined 62 16.4 60 15.8 96 96 Calm 29.93 1014 N/A 0 0
10:55 am 10:55 Cloudy 61 16.3 60 15.5 95 95 Calm 29.93 1014 N/A 0 0
11:15 am 11:15 Cloudy 62 16.4 60 15.6 95 95 SW 3 6 29.92 1013 N/A 0 0
11:35 am 11:35 undefined 62 16.7 60 15.8 94 94 Calm 29.92 1013 N/A 0 0
11:55 am 11:55 Cloudy with Thunderstorms 62 16.8 60 15.8 94 94 Calm 29.92 1013 N/A 0 0
12:15 pm 12:15 undefined 62 16.9 61 16.1 95 95 S 3 6 29.91 1013 N/A 0 0
12:35 pm 12:35 Partly Cloudy with Nearby Thunderstorms 63 17.2 61 16.3 94 94 Calm 29.91 1013 N/A 0 0
12:55 pm 12:55 Partly Cloudy with Thunderstorms 64 17.6 62 16.6 94 94 Calm 29.9 1013 N/A 0 0
1:15 pm 13:15 Cloudy with Nearby Thunderstorms 64 17.9 62 16.8 93 93 Calm 29.89 1012 N/A 0 0
1:35 pm 13:35 Cloudy with Nearby Thunderstorms 66 18.7 63 17.3 92 92 NNW 3 6 29.88 1012 N/A 0 0
1:55 pm 13:55 undefined 66 18.9 63 17.4 91 91 WNW 3 6 29.88 1012 N/A 0 0
2:15 pm 14:15 undefined 67 19.2 63 17.3 89 89 WSW 3 6 29.88 1012 N/A 0 0
2:35 pm 14:35 Cloudy 67 19.4 63 17.2 87 87 WNW 5 7 29.88 1012 N/A 0 0
2:55 pm 14:55 Cloudy with Nearby Thunderstorms 67 19.7 62 16.8 83 83 Calm 29.87 1011 N/A 0 0
3:15 pm 15:15 Cloudy with Nearby Thunderstorms 68 19.8 61 16.1 79 79 Calm 29.87 1011 N/A 0 0
3:35 pm 15:35 Cloudy with Thunderstorms 68 20 60 15.4 75 75 SW 3 6 29.86 1011 N/A 0 0
3:55 pm 15:55 Cloudy 68 19.9 60 15.8 77 77 SW 3 6 29.84 1011 N/A 0 0
4:15 pm 16:15 Cloudy 68 19.8 62 16.4 81 81 SW 5 7 29.85 1011 N/A 0 0
4:35 pm 16:35 Cloudy with Nearby Thunderstorms 67 19.7 63 17.1 85 85 SW 5 7 29.85 1011 N/A 0 0
4:55 pm 16:55 undefined 67 19.5 63 17 86 86 NW 5 7 29.85 1011 N/A 0 0
5:15 pm 17:15 Cloudy 67 19.2 64 17.9 92 92 Calm 29.83 1010 N/A 0 0
5:35 pm 17:35 Mostly Cloudy 68 19.8 65 18.3 91 91 Calm 29.83 1010 N/A 0 0
5:55 pm 17:55 Sunny 70 21 60 15.8 72 72 NW 7 11 29.8 1009 N/A 0 0
6:15 pm 18:15 Mostly Cloudy with Nearby Thunderstorms 68 20 60 15.5 75 75 WNW 6 9 29.81 1010 N/A 0 0
6:35 pm 18:35 Cloudy 67 19.4 59 15 76 76 WNW 6 9 29.83 1010 N/A 0 0
6:55 pm 18:55 Cloudy 67 19.5 56 13.4 68 68 NW 10 17 29.85 1011 N/A 0 0
7:15 pm 19:15 Cloudy 67 19.4 52 11.3 60 60 NW 10 17 29.84 1010 N/A 0 0
7:35 pm 19:35 Cloudy 65 18.6 49 9.6 56 56 NNW 18 30 29.81 1009 N/A 0 0
7:55 pm 19:55 Cloudy 60 15.8 49 9.4 66 66 NNW 10 17 29.85 1011 N/A 0 0
8:15 pm 20:15 Cloudy 60 15.8 49 9.2 65 65 NNW 10 17 29.85 1011 N/A 0 0
8:35 pm 20:35 Cloudy 59 14.8 50 10.1 74 74 NNW 7 11 29.88 1012 N/A 0 0
8:55 pm 20:55 Mostly Cloudy 58 14.2 50 9.9 76 76 NNW 3 6 29.88 1012 N/A 0 0
9:15 pm 21:15 Mostly Cloudy with Nearby Thunderstorms 58 14.3 50 10 76 76 Calm 29.89 1012 N/A 0 0
9:35 pm 21:35 undefined 54 12.4 53 11.6 95 95 Calm 29.9 1013 N/A 0 0
9:55 pm 21:55 undefined 55 12.9 51 10.4 85 85 Calm 29.91 1013 N/A 0 0
10:15 pm 22:15 undefined 54 12.4 51 10.7 89 89 Calm 29.92 1013 N/A 0 0
10:35 pm 22:35 undefined 52 11.1 51 10.3 95 95 Calm 29.94 1014 N/A 0 0
10:55 pm 22:55 undefined 52 10.9 50 9.9 94 94 Calm 29.94 1014 N/A 0 0
11:15 pm 23:15 undefined 51 10.8 49 9.5 92 92 Calm 29.95 1014 N/A 0 0
11:35 pm 23:35 undefined 49 9.5 48 9.1 97 97 Calm 29.94 1014 N/A 0 0
11:55 pm 23:55 undefined 49 9.2 47 8.5 95 95 Calm 29.95 1014 N/A 0 0

Powered by AerisWeather